Weather History for Medford, OR

Change the Weather History Date:

Saturday, July 20, 2013

  Actual Average Record
Temperature  
Mean Temperature 81 °F 75 °F  
Max Temperature 100 °F 92 °F 115 °F (1946)
Min Temperature 62 °F 58 °F 42 °F (1929)
Degree Days  
Heating Degree Days 0 0  
Month to date heating degree days 0 1  
Since 1 June heating degree days 35 55  
Since 1 July heating degree days 0 1  
Cooling Degree Days 16 10  
Month to date cooling degree days 275 169  
Year to date cooling degree days 456 315  
Since 1 June cooling degree days 421 277  
Growing Degree Days 31 (Base 50)    
Moisture  
Dew Point 49 °F    
Average Humidity 39    
Maximum Humidity 60    
Minimum Humidity 17    
Precipitation  
Precipitation 0.00 in 0.00 in 0.06 in (2012)
Month to date precipitation 0.00 0.19  
Year to date precipitation 4.13 9.65  
Snow  
Snow 0.00 in 0.00 in - ()
Month to date snowfall 0.0 0.0  
Since 1 July snowfall 0.0 0.0  
Snow Depth -    
Sea Level Pressure  
Sea Level Pressure 29.89 in    
Wind  
Wind Speed 4 mph (NNW)    
Max Wind Speed 17 mph    
Max Gust Speed 20 mph    
Visibility 10 miles    
Events      
T = Trace of Precipitation, MM = Missing Value Source: NWS Daily Summary

Daily Weather History Graph

Daily Weather History Graph

Search for Another Location

Airport:

Trip Planner

Search our weather history database for the weather conditions in past years. The results will help you decide how hot, cold, wet, or windy it might be!

Date:

Astronomy

Jul. 20, 2013 Rise Set
Actual Time 5:52 AM PDT 8:42 PM PDT
Civil Twilight 5:19 AM PDT 9:15 PM PDT
Nautical Twilight 4:37 AM PDT 9:57 PM PDT
Astronomical Twilight 3:49 AM PDT 10:45 PM PDT
Moon 6:51 PM PDT (7/20) 3:38 AM PDT (7/20)
Length of Visible Light 15h 55m
Length of Day
14h 49m
Waxing Gibbous, 94% of the Moon is Illuminated
Jul 20
Waxing Gibbous
Jul 22
Full
Jul 29
Last Quarter
Aug 6
New
Aug 14
First Quarter

Hourly Weather History & Observations

Time (PDT) Temp. Heat Index Dew Point Humidity Pressure Visibility Wind Dir Wind Speed Gust Speed Precip Events Conditions
12:53 AM 71.1 °F - 46.0 °F 41% 29.95 in 10.0 mi West 3.5 mph - N/A   Clear
1:53 AM 72.0 °F - 46.0 °F 40% 29.95 in 10.0 mi Calm Calm - N/A   Clear
2:53 AM 69.1 °F - 48.0 °F 47% 29.95 in 10.0 mi Calm Calm - N/A   Clear
3:53 AM 66.0 °F - 48.0 °F 52% 29.95 in 10.0 mi Calm Calm - N/A   Clear
4:53 AM 64.0 °F - 48.0 °F 56% 29.95 in 10.0 mi Calm Calm - N/A   Clear
5:53 AM 63.0 °F - 48.0 °F 58% 29.96 in 10.0 mi Calm Calm - N/A   Clear
6:53 AM 64.0 °F - 48.9 °F 58% 29.97 in 10.0 mi Calm Calm - N/A   Clear
7:53 AM 66.0 °F - 50.0 °F 56% 29.98 in 10.0 mi North 3.5 mph - N/A   Clear
8:53 AM 72.0 °F - 51.1 °F 48% 29.97 in 10.0 mi NNE 3.5 mph - N/A   Clear
9:53 AM 75.0 °F - 52.0 °F 44% 29.96 in 10.0 mi NE 3.5 mph - N/A   Clear
10:53 AM 79.0 °F - 52.0 °F 39% 29.94 in 10.0 mi Calm Calm - N/A   Clear
11:53 AM 82.9 °F - 51.1 °F 33% 29.91 in 10.0 mi Variable 3.5 mph - N/A   Clear
12:53 PM 88.0 °F - 50.0 °F 27% 29.88 in 10.0 mi Variable 4.6 mph - N/A   Clear
1:53 PM 91.0 °F - 50.0 °F 24% 29.86 in 10.0 mi Variable 3.5 mph - N/A   Clear
2:53 PM 93.9 °F - 51.1 °F 23% 29.83 in 10.0 mi SW 5.8 mph - N/A   Clear
3:53 PM 97.0 °F - 52.0 °F 22% 29.80 in 10.0 mi Variable 5.8 mph - N/A   Clear
4:53 PM 99.0 °F 96.5 °F 53.1 °F 21% 29.78 in 10.0 mi WNW 10.4 mph - N/A   Clear
5:53 PM 99.0 °F - 46.9 °F 17% 29.77 in 10.0 mi West 12.7 mph - N/A   Clear
6:53 PM 96.1 °F - 46.9 °F 19% 29.78 in 10.0 mi North 13.8 mph - N/A   Clear
7:53 PM 91.0 °F - 46.9 °F 22% 29.80 in 10.0 mi NNW 9.2 mph - N/A   Clear
8:53 PM 86.0 °F - 48.0 °F 27% 29.82 in 10.0 mi NNW 5.8 mph - N/A   Clear
9:53 PM 82.0 °F - 45.0 °F 27% 29.84 in 10.0 mi NNW 4.6 mph - N/A   Clear
10:53 PM 77.0 °F - 45.0 °F 32% 29.85 in 10.0 mi North 4.6 mph - N/A   Clear
11:53 PM 75.9 °F - 46.9 °F 36% 29.86 in 10.0 mi Calm Calm - N/A   Clear